TimeCDT,TemperatureF,Dew PointF,Humidity,Sea Level PressureIn,VisibilityMPH,Wind Direction,Wind SpeedMPH,Gust SpeedMPH,PrecipitationIn,Events,Conditions,WindDirDegrees,DateUTC
12:53 AM,55.0,42.1,62,30.28,10.0,ENE,4.6,-,N/A,,Clear,70,2013-04-26 05:53:00
2:53 AM,53.1,42.1,66,30.24,10.0,East,3.5,-,N/A,,Clear,90,2013-04-26 07:53:00
3:53 AM,52.0,42.1,69,30.23,10.0,Calm,Calm,-,N/A,,Clear,0,2013-04-26 08:53:00
4:53 AM,51.1,42.1,71,30.23,10.0,ESE,4.6,-,N/A,,Clear,110,2013-04-26 09:53:00
5:53 AM,52.0,42.1,69,30.25,10.0,ESE,5.8,-,N/A,,Clear,110,2013-04-26 10:53:00
6:53 AM,53.1,41.0,64,30.30,10.0,North,5.8,-,N/A,,Clear,10,2013-04-26 11:53:00
7:53 AM,55.0,43.0,64,30.30,10.0,East,6.9,-,N/A,,Clear,100,2013-04-26 12:53:00
8:53 AM,60.1,41.0,49,30.30,10.0,East,8.1,-,N/A,,Clear,90,2013-04-26 13:53:00
9:53 AM,64.9,39.9,40,30.30,10.0,ESE,9.2,-,N/A,,Clear,110,2013-04-26 14:53:00
10:53 AM,69.1,39.9,35,30.30,10.0,ESE,8.1,-,N/A,,Clear,110,2013-04-26 15:53:00
11:53 AM,72.0,43.0,35,30.27,10.0,Variable,6.9,-,N/A,,Clear,0,2013-04-26 16:53:00
12:53 PM,73.9,46.0,37,30.25,10.0,SSW,5.8,-,N/A,,Clear,200,2013-04-26 17:53:00
1:53 PM,77.0,48.9,37,30.24,10.0,Variable,4.6,-,N/A,,Clear,0,2013-04-26 18:53:00
2:53 PM,78.1,51.1,39,30.22,10.0,SSW,6.9,-,N/A,,Partly Cloudy,200,2013-04-26 19:53:00
3:53 PM,79.0,52.0,39,30.19,10.0,Variable,6.9,-,N/A,,Mostly Cloudy,0,2013-04-26 20:53:00
4:53 PM,80.1,55.0,42,30.18,10.0,South,12.7,16.1,N/A,,Clear,170,2013-04-26 21:53:00
5:53 PM,77.0,55.9,48,30.16,10.0,SE,9.2,-,N/A,,Clear,140,2013-04-26 22:53:00
6:53 PM,75.9,57.9,54,30.17,10.0,South,8.1,-,N/A,,Partly Cloudy,190,2013-04-26 23:53:00
7:53 PM,73.0,57.9,59,30.17,10.0,South,6.9,-,N/A,,Scattered Clouds,170,2013-04-27 00:53:00
8:53 PM,70.0,59.0,68,30.18,10.0,South,6.9,-,N/A,,Scattered Clouds,180,2013-04-27 01:53:00
9:53 PM,70.0,60.1,71,30.19,10.0,South,8.1,-,N/A,,Mostly Cloudy,170,2013-04-27 02:53:00
10:53 PM,68.0,60.1,76,30.17,10.0,SSE,8.1,-,N/A,,Clear,160,2013-04-27 03:53:00
11:53 PM,66.9,59.0,76,30.16,10.0,South,6.9,-,N/A,,Clear,170,2013-04-27 04:53:00